Flag for Australia Weather past 2 weeks in Hobart, Tasmania, Australia

Now
41 °F

Passing clouds.


Feels Like: 34 °F
Forecast: 36 / 44 °F
Wind: 13 mph from Northwest

Location: Hobart Airport

Current Time: Aug 5, 2015 at 9:54:04 AM

Latest Report: Aug 5, 2015 at 9:00 AM


Visibility: N/A

Pressure: 29.59 "Hg

Humidity: 57%

Dew point: 27 °F

Location of HobartLocation

Historic Weather in Hobart — Graph

°F

Hobart temperature yesterday

Maximum temperature yesterday: 52 °F (at 12:30 PM)
Minimum temperature yesterday: 36 °F (at 1:30 AM)
Average temperature yesterday: 45 °F

Past Weeks' High & Low Weather Summary

 TemperatureHumidityPressure
High59 °F (Jul 22, 11:00 AM)93% (Jul 24, 12:30 AM)30.33 "Hg (Jul 24, 12:30 AM)
Low34 °F (Jul 24, 4:30 AM)37% (Aug 1, 12:30 PM)29.27 "Hg (Jul 26, 10:00 AM)
Average48 °F62%29.80 "Hg
* Reported Jul 21 8:00 AM — Aug 5 8:30 AM, Hobart, Weather by CustomWeather, © 2015

Note: Actual official high and low records may vary slightly from our data, if they occured in-between our weather recording intervals... More about our weather records

Advertising

Hobart weather history for previous 24 hours

 ConditionsComfort  
Time TempWeatherWind HumidityBarometerVisibility
8:30 AM
Wed, Aug 5
41 °FPassing clouds.13 mph57%29.59 "HgN/A
8:00 AM37 °FPassing clouds.10 mph65%29.56 "HgN/A
7:30 AM37 °FPassing clouds.12 mph60%29.56 "HgN/A
7:00 AM37 °FPassing clouds.10 mph60%29.56 "HgN/A
6:30 AM37 °FPassing clouds.14 mph56%29.53 "HgN/A
6:00 AM39 °FPassing clouds.12 mph52%29.53 "HgN/A
5:30 AM39 °FPassing clouds.17 mph52%29.53 "HgN/A
5:00 AM39 °FPassing clouds.21 mph48%29.53 "HgN/A
4:30 AM37 °FPassing clouds.17 mph70%29.50 "HgN/A
4:00 AM41 °FPassing clouds.16 mph49%29.50 "HgN/A
3:30 AM39 °FPassing clouds.21 mph56%29.47 "HgN/A
3:00 AM39 °FPassing clouds.24 mph61%29.47 "HgN/A
2:30 AM41 °FPassing clouds.23 mph57%29.47 "HgN/A
2:00 AM39 °FPassing clouds.12 mph81%29.47 "HgN/A
1:30 AM41 °FPassing clouds.12 mph76%29.47 "HgN/A
1:00 AM41 °FPassing clouds.15 mph76%29.45 "HgN/A
12:30 AM43 °FSprinkles. Passing clouds.15 mph76%29.45 "HgN/A
12:00 AM43 °FPassing clouds.15 mph71%29.45 "HgN/A
11:30 PM
Tue, Aug 4
43 °FPassing clouds.12 mph76%29.45 "HgN/A
11:00 PM43 °FSprinkles. Partly cloudy.18 mph76%29.45 "HgN/A
10:30 PM43 °FPassing clouds.17 mph71%29.42 "HgN/A
10:00 PM43 °FPassing clouds.18 mph71%29.45 "HgN/A
9:30 PM45 °FPassing clouds.17 mph71%29.45 "HgN/A
9:00 PM45 °FSprinkles. Partly cloudy.15 mph71%29.47 "HgN/A
8:30 PM45 °FPassing clouds.28 mph71%29.47 "HgN/A
8:00 PM45 °FSprinkles. Passing clouds.15 mph81%29.50 "HgN/A
7:30 PM46 °FSprinkles. Passing clouds.16 mph76%29.50 "HgN/A
7:00 PM48 °FScattered showers. Passing clouds.21 mph62%29.47 "HgN/A
6:30 PM48 °FSprinkles. Passing clouds.15 mph58%29.50 "HgN/A
6:00 PM48 °FPassing clouds.21 mph58%29.50 "HgN/A
5:30 PM48 °FPassing clouds.17 mph62%29.50 "HgN/A
5:00 PM50 °FPassing clouds.17 mph58%29.53 "HgN/A
4:30 PM50 °FPassing clouds.23 mph54%29.53 "HgN/A
4:00 PM50 °FScattered clouds.20 mph54%29.56 "HgN/A
3:30 PM52 °FPassing clouds.23 mph50%29.59 "HgN/A
3:00 PM52 °FSprinkles. Broken clouds.25 mph50%29.59 "HgN/A
2:30 PM52 °FScattered clouds.23 mph50%29.62 "HgN/A
2:04 PM52 °FScattered clouds.23 mph54%29.62 "HgN/A
1:00 PM52 °FPartly sunny.24 mph47%29.68 "HgN/A
12:30 PM52 °FPartly sunny.24 mph47%29.68 "HgN/A
12:00 PM50 °FScattered clouds.20 mph50%29.74 "HgN/A
11:30 AM50 °FScattered clouds.16 mph54%29.77 "HgN/A
11:00 AM48 °FScattered clouds.22 mph54%29.77 "HgN/A
10:30 AM46 °FPartly sunny.22 mph57%29.77 "HgN/A
10:00 AM45 °FPartly sunny.20 mph61%29.80 "HgN/A
9:30 AM45 °FBroken clouds.15 mph57%29.83 "HgN/A
9:00 AM43 °FBroken clouds.13 mph61%29.86 "HgN/A
Weather by CustomWeather, © 2015

See weather overviewHow to use our weather pages